Regional Weather Roundup
Issued by NWS Goodland, KS

Home | Current Version | Previous Version | Graphics & Text | Print | Product List | Glossary On
Versions: 1 2 3 4 5 6 7 8 9 10 11 12 13 14 15 16 17 18 19 20 21 22 23 24 25 26 27 28 29 30 31 32 33 34 35 36 37 38 39 40 41 42 43 44 45 46 47 48 49 50
000
ASUS43 KGLD 250808
RWRGLD

GOODLAND FORECAST AREA HOURLY WEATHER ROUNDUP
NATIONAL WEATHER SERVICE GOODLAND KS
200 AM MDT TUE APR 25 2017

...OFFICIAL OBSERVATIONS...

CITY           SKY/WX    TMP DP  RH WIND       PRES   REMARKS
GOODLAND KS    CLOUDY    50  41  71 NE17      29.44F
HILL CITY KS   CLOUDY    59  45  59 NE14      29.45F
IMPERIAL NEB   CLOUDY    46  43  89 E17G25    29.48F
MCCOOK NEB     CLOUDY    53  41  63 W17G24    29.58R
AKRON CO       CLOUDY    46  39  76 NW26G37   29.57R
BURLINGTON CO  NOT AVBL
LIMON CO       CLOUDY    44  39  82 N8        29.52R
$$

...UNOFFICIAL OBSERVATIONS...

CITY           SKY/WX    TMP DP  RH WIND       PRES   REMARKS
LENORA KS        N/A     55  32  41 MISG        N/A
NORTON KS      CLEAR     54  37  54 NE15      29.47F
SHARON SPRINGS   N/A     49  44  83 NE6         N/A
TRENTON NEB      N/A     48  32  54 NE12        N/A
$$



USA.gov is the U.S. government's official web portal to all federal, state and local government web resources and services.